Orchid Ace — 7JDE — position and weather

sailwx.info

Track history (hours):
 
Tides and Currents Weather Stations Pressure Air Temp Water Temp Dewpoint Dewpoint Depression Visibility Wind Speed Wind Dir Waves Ship Positions

Orchid Ace

Last reported at 2014-Sep-05 22:30 UTC. Time now 2014-Sep-17 19:41 UTC.
Position N 19°16' W 095°39'.
Warning: this ship's position is 11 days out of date.

Length 200 m; draft 9 m.

Type: Cargo ship. MMSI: 432651000.

Date/timePositionNaut miles runAvg speedWind from/ knotsBaromVisibWave heightAir tempDewpointWater temp
2014-Sep-05 22:30N 19°16' W 095°39'1616.6
2014-Sep-05 21:34N 19°12' W 095°55'1212.3
2014-Sep-05 20:33N 19°12' W 096°08'1 0.5
2014-Sep-05 19:33N 19°13' W 096°08'0 0.0
2014-Sep-05 18:33N 19°13' W 096°08'0 0.0
2014-Sep-05 17:33N 19°13' W 096°08'0 0.0
2014-Sep-05 16:33N 19°13' W 096°08'0 0.0
2014-Sep-05 15:33N 19°13' W 096°08'0 0.0
2014-Sep-05 14:33N 19°13' W 096°08'0 0.0
2014-Sep-05 13:33N 19°13' W 096°08'0 0.0
2014-Sep-05 12:33N 19°13' W 096°08'0 0.0
2014-Sep-05 11:33N 19°13' W 096°08'0 0.0
2014-Sep-05 10:33N 19°13' W 096°08'0 0.0
2014-Sep-05 09:33N 19°13' W 096°08'0 0.0
2014-Sep-05 08:33N 19°13' W 096°08'0 0.0
2014-Sep-05 07:33N 19°13' W 096°08'0 0.0
2014-Sep-05 06:33N 19°13' W 096°08'0 0.0
2014-Sep-05 05:33N 19°13' W 096°08'0 0.0
2014-Sep-05 04:33N 19°13' W 096°08'0 0.0
2014-Sep-05 03:33N 19°13' W 096°08'5 4.8
2014-Sep-05 02:33N 19°11' W 096°03'4 3.9
2014-Sep-05 01:29N 19°08' W 096°00'0 0.1
2014-Sep-05 00:32N 19°08' W 096°00'0 0.0
2014-Sep-04 23:32N 19°08' W 096°00'0 0.0
2014-Sep-04 22:32N 19°08' W 096°00'0 0.0
2014-Sep-04 21:32N 19°08' W 096°00'0 0.0
2014-Sep-04 20:32N 19°08' W 096°00'  
2014-Sep-01 17:33N 25°45' W 079°45'1615.9
2014-Sep-01 16:33N 26°01' W 079°46'1414.1
2014-Sep-01 15:34N 26°15' W 079°45'1414.1
2014-Sep-01 14:34N 26°29' W 079°46'1414.3
2014-Sep-01 13:33N 26°44' W 079°45'1514.7
2014-Sep-01 12:33N 26°58' W 079°45'  
2014-Aug-29 23:30N 34°17' W 075°59'2118.3
2014-Aug-29 22:21N 34°32' W 075°41'1416.9
2014-Aug-29 21:30N 34°43' W 075°30'12515.7
2014-Aug-29 13:32N 36°47' W 075°45'1614.5
2014-Aug-29 12:27N 36°58' W 075°60'1517.2
2014-Aug-29 11:33N 37°11' W 076°09'2019.3
2014-Aug-29 10:33N 37°30' W 076°03'7718.9
2014-Aug-29 06:28N 38°45' W 076°26'1618.2
2014-Aug-29 05:33N 39°01' W 076°23'1313.1
2014-Aug-29 04:33N 39°13' W 076°31'2 1.8
2014-Aug-29 03:33N 39°14' W 076°32'0 0.0
2014-Aug-29 02:33N 39°14' W 076°32'0 0.0
2014-Aug-29 01:33N 39°14' W 076°32'0 0.0
2014-Aug-29 00:33N 39°14' W 076°32'0 0.0
2014-Aug-28 23:33N 39°14' W 076°32'0 0.0
2014-Aug-28 22:33N 39°14' W 076°32'0 0.0
2014-Aug-28 21:33N 39°14' W 076°32'0 0.0
2014-Aug-28 20:33N 39°14' W 076°32'0 0.0
2014-Aug-28 19:33N 39°14' W 076°32'0 0.0
2014-Aug-28 18:33N 39°14' W 076°32'0 0.0
2014-Aug-28 17:33N 39°14' W 076°32'0 0.0
2014-Aug-28 16:30N 39°14' W 076°32'0 0.0
2014-Aug-28 15:33N 39°14' W 076°32'0 0.0
2014-Aug-28 14:33N 39°14' W 076°32'0 0.0
2014-Aug-28 13:33N 39°14' W 076°32'0 0.0
2014-Aug-28 12:33N 39°14' W 076°32'0 0.0
2014-Aug-28 11:33N 39°14' W 076°32'0 0.0
2014-Aug-28 10:33N 39°14' W 076°32'0 0.0
2014-Aug-28 09:33N 39°14' W 076°32'0 0.0
2014-Aug-28 08:33N 39°14' W 076°32'0 0.0
2014-Aug-28 07:33N 39°14' W 076°32'0 0.0
2014-Aug-28 06:33N 39°14' W 076°32'0 0.0
2014-Aug-28 05:33N 39°14' W 076°32'0 0.0
2014-Aug-28 04:33N 39°14' W 076°32'0 0.0
2014-Aug-28 03:33N 39°14' W 076°32'0 0.0
2014-Aug-28 02:33N 39°14' W 076°32'0 0.0
2014-Aug-28 01:33N 39°14' W 076°32'0 0.0
2014-Aug-28 00:33N 39°14' W 076°32'0 0.0
2014-Aug-27 23:33N 39°14' W 076°32'2 1.9
2014-Aug-27 22:33N 39°14' W 076°34'0 0.0
2014-Aug-27 21:33N 39°14' W 076°34'0 0.0
2014-Aug-27 20:33N 39°14' W 076°34'0 0.0
2014-Aug-27 19:33N 39°14' W 076°34'0 0.0
2014-Aug-27 18:33N 39°14' W 076°34'0 0.0
2014-Aug-27 17:33N 39°14' W 076°34'0 0.0
2014-Aug-27 16:33N 39°14' W 076°34'0 0.0
2014-Aug-27 15:33N 39°14' W 076°34'0 0.0
2014-Aug-27 14:33N 39°14' W 076°34'0 0.0
2014-Aug-27 13:30N 39°14' W 076°34'0 0.0
2014-Aug-27 12:33N 39°14' W 076°34'0 0.0
2014-Aug-27 11:33N 39°14' W 076°34'0 0.0
2014-Aug-27 10:33N 39°14' W 076°34'0 0.0
2014-Aug-27 09:33N 39°14' W 076°34'0 0.0
2014-Aug-27 08:33N 39°14' W 076°34'1 0.7
2014-Aug-27 07:34N 39°14' W 076°33'9 9.3
2014-Aug-27 06:34N 39°10' W 076°23'1110.8
2014-Aug-27 05:33N 39°18' W 076°13'1717.0
2014-Aug-27 04:34N 39°29' W 075°57'8 7.7
2014-Aug-27 03:33N 39°32' W 075°48'9 8.9
2014-Aug-27 02:33N 39°33' W 075°36'10 9.8
2014-Aug-27 01:33N 39°25' W 075°30'2019.9
2014-Aug-27 00:33N 39°09' W 075°15'1514.6
2014-Aug-26 23:33N 38°56' W 075°06'1010.5
2014-Aug-26 22:33N 38°47' W 074°59'  
Track history (hours):
 
Tides and Currents Weather Stations Pressure Air Temp Water Temp Dewpoint Dewpoint Depression Visibility Wind Speed Wind Dir Waves Ship Positions

Orchid Ace

Last reported at 2014-Sep-05 22:30 UTC. Time now 2014-Sep-17 19:41 UTC.
Position N 19°16' W 095°39'.
Warning: this ship's position is 11 days out of date.

Length 200 m; draft 9 m.

Type: Cargo ship. MMSI: 432651000.

Date/timePositionNaut miles runAvg speedWind from/ knotsBaromVisibWave heightAir tempDewpointWater temp
2014-Sep-05 22:30N 19°16' W 095°39'1616.6
2014-Sep-05 21:34N 19°12' W 095°55'1212.3
2014-Sep-05 20:33N 19°12' W 096°08'1 0.5
2014-Sep-05 19:33N 19°13' W 096°08'0 0.0
2014-Sep-05 18:33N 19°13' W 096°08'0 0.0
2014-Sep-05 17:33N 19°13' W 096°08'0 0.0
2014-Sep-05 16:33N 19°13' W 096°08'0 0.0
2014-Sep-05 15:33N 19°13' W 096°08'0 0.0
2014-Sep-05 14:33N 19°13' W 096°08'0 0.0
2014-Sep-05 13:33N 19°13' W 096°08'0 0.0
2014-Sep-05 12:33N 19°13' W 096°08'0 0.0
2014-Sep-05 11:33N 19°13' W 096°08'0 0.0
2014-Sep-05 10:33N 19°13' W 096°08'0 0.0
2014-Sep-05 09:33N 19°13' W 096°08'0 0.0
2014-Sep-05 08:33N 19°13' W 096°08'0 0.0
2014-Sep-05 07:33N 19°13' W 096°08'0 0.0
2014-Sep-05 06:33N 19°13' W 096°08'0 0.0
2014-Sep-05 05:33N 19°13' W 096°08'0 0.0
2014-Sep-05 04:33N 19°13' W 096°08'0 0.0
2014-Sep-05 03:33N 19°13' W 096°08'5 4.8
2014-Sep-05 02:33N 19°11' W 096°03'4 3.9
2014-Sep-05 01:29N 19°08' W 096°00'0 0.1
2014-Sep-05 00:32N 19°08' W 096°00'0 0.0
2014-Sep-04 23:32N 19°08' W 096°00'0 0.0
2014-Sep-04 22:32N 19°08' W 096°00'0 0.0
2014-Sep-04 21:32N 19°08' W 096°00'0 0.0
2014-Sep-04 20:32N 19°08' W 096°00'  
2014-Sep-01 17:33N 25°45' W 079°45'1615.9
2014-Sep-01 16:33N 26°01' W 079°46'1414.1
2014-Sep-01 15:34N 26°15' W 079°45'1414.1
2014-Sep-01 14:34N 26°29' W 079°46'1414.3
2014-Sep-01 13:33N 26°44' W 079°45'1514.7
2014-Sep-01 12:33N 26°58' W 079°45'  
2014-Aug-29 23:30N 34°17' W 075°59'2118.3
2014-Aug-29 22:21N 34°32' W 075°41'1416.9
2014-Aug-29 21:30N 34°43' W 075°30'12515.7
2014-Aug-29 13:32N 36°47' W 075°45'1614.5
2014-Aug-29 12:27N 36°58' W 075°60'1517.2
2014-Aug-29 11:33N 37°11' W 076°09'2019.3
2014-Aug-29 10:33N 37°30' W 076°03'7718.9
2014-Aug-29 06:28N 38°45' W 076°26'1618.2
2014-Aug-29 05:33N 39°01' W 076°23'1313.1
2014-Aug-29 04:33N 39°13' W 076°31'2 1.8
2014-Aug-29 03:33N 39°14' W 076°32'0 0.0
2014-Aug-29 02:33N 39°14' W 076°32'0 0.0
2014-Aug-29 01:33N 39°14' W 076°32'0 0.0
2014-Aug-29 00:33N 39°14' W 076°32'0 0.0
2014-Aug-28 23:33N 39°14' W 076°32'0 0.0
2014-Aug-28 22:33N 39°14' W 076°32'0 0.0
2014-Aug-28 21:33N 39°14' W 076°32'0 0.0
2014-Aug-28 20:33N 39°14' W 076°32'0 0.0
2014-Aug-28 19:33N 39°14' W 076°32'0 0.0
2014-Aug-28 18:33N 39°14' W 076°32'0 0.0
2014-Aug-28 17:33N 39°14' W 076°32'0 0.0
2014-Aug-28 16:30N 39°14' W 076°32'0 0.0
2014-Aug-28 15:33N 39°14' W 076°32'0 0.0
2014-Aug-28 14:33N 39°14' W 076°32'0 0.0
2014-Aug-28 13:33N 39°14' W 076°32'0 0.0
2014-Aug-28 12:33N 39°14' W 076°32'0 0.0
2014-Aug-28 11:33N 39°14' W 076°32'0 0.0
2014-Aug-28 10:33N 39°14' W 076°32'0 0.0
2014-Aug-28 09:33N 39°14' W 076°32'0 0.0
2014-Aug-28 08:33N 39°14' W 076°32'0 0.0
2014-Aug-28 07:33N 39°14' W 076°32'0 0.0
2014-Aug-28 06:33N 39°14' W 076°32'0 0.0
2014-Aug-28 05:33N 39°14' W 076°32'0 0.0
2014-Aug-28 04:33N 39°14' W 076°32'0 0.0
2014-Aug-28 03:33N 39°14' W 076°32'0 0.0
2014-Aug-28 02:33N 39°14' W 076°32'0 0.0
2014-Aug-28 01:33N 39°14' W 076°32'0 0.0
2014-Aug-28 00:33N 39°14' W 076°32'0 0.0
2014-Aug-27 23:33N 39°14' W 076°32'2 1.9
2014-Aug-27 22:33N 39°14' W 076°34'0 0.0
2014-Aug-27 21:33N 39°14' W 076°34'0 0.0
2014-Aug-27 20:33N 39°14' W 076°34'0 0.0
2014-Aug-27 19:33N 39°14' W 076°34'0 0.0
2014-Aug-27 18:33N 39°14' W 076°34'0 0.0
2014-Aug-27 17:33N 39°14' W 076°34'0 0.0
2014-Aug-27 16:33N 39°14' W 076°34'0 0.0
2014-Aug-27 15:33N 39°14' W 076°34'0 0.0
2014-Aug-27 14:33N 39°14' W 076°34'0 0.0
2014-Aug-27 13:30N 39°14' W 076°34'0 0.0
2014-Aug-27 12:33N 39°14' W 076°34'0 0.0
2014-Aug-27 11:33N 39°14' W 076°34'0 0.0
2014-Aug-27 10:33N 39°14' W 076°34'0 0.0
2014-Aug-27 09:33N 39°14' W 076°34'0 0.0
2014-Aug-27 08:33N 39°14' W 076°34'1 0.7
2014-Aug-27 07:34N 39°14' W 076°33'9 9.3
2014-Aug-27 06:34N 39°10' W 076°23'1110.8
2014-Aug-27 05:33N 39°18' W 076°13'1717.0
2014-Aug-27 04:34N 39°29' W 075°57'8 7.7
2014-Aug-27 03:33N 39°32' W 075°48'9 8.9
2014-Aug-27 02:33N 39°33' W 075°36'10 9.8
2014-Aug-27 01:33N 39°25' W 075°30'2019.9
2014-Aug-27 00:33N 39°09' W 075°15'1514.6
2014-Aug-26 23:33N 38°56' W 075°06'1010.5
2014-Aug-26 22:33N 38°47' W 074°59'  

Dump ship's entire track history